Weather History for Fairbanks Ft. Wainwright, AK

Change the Weather History Date:

Tuesday, March 26, 2013

  Actual Average Record
Temperature  
Mean Temperature -8 °F -  
Max Temperature 1 °F 22 °F 37 °F (2014)
Min Temperature -18 °F 0 °F -25 °F (2007)
Degree Days  
Heating Degree Days 74    
Moisture  
Dew Point -11 °F    
Average Humidity 70    
Maximum Humidity 84    
Minimum Humidity 56    
Precipitation  
Precipitation 0.01 in - - ()
Snow  
Snow 0.00 in - - ()
Snow Depth 23.00 in    
Sea Level Pressure  
Sea Level Pressure 30.03 in    
Wind  
Wind Speed 10 mph (SW)    
Max Wind Speed 15 mph    
Max Gust Speed -    
Visibility 7 miles    
Events Snow    
Averages and records for this station are not official NWS values.
T = Trace of Precipitation, MM = Missing Value Source: NWS Daily Summary

Daily Weather History Graph

Daily Weather History Graph

Search for Another Location

Airport:

Trip Planner

Search our weather history database for the weather conditions in past years. The results will help you decide how hot, cold, wet, or windy it might be!

Date:

Astronomy

Mar. 26, 2013 Rise Set
Actual Time 7:27 AM AKDT 8:26 PM AKDT
Civil Twilight 6:37 AM AKDT 9:16 PM AKDT
Nautical Twilight 5:34 AM AKDT 10:20 PM AKDT
Astronomical Twilight 4:17 AM AKDT 11:39 PM AKDT
Moon 8:24 PM AKDT (3/26) 6:52 AM AKDT (3/26)
Length of Visible Light 14h 39m
Length of Day
12h 59m
Full, 100% of the Moon is Illuminated
Mar 26
Full
Mar 27
Full
Apr 2
Last Quarter
Apr 10
New
Apr 18
First Quarter

Hourly Weather History & Observations

Time (AKDT) Temp. Windchill Dew Point Humidity Pressure Visibility Wind Dir Wind Speed Gust Speed Precip Events Conditions
12:56 AM 1.0 °F -14.9 °F -6.0 °F 72% 29.85 in 10.0 mi SW 10.4 mph - N/A   Overcast
1:33 AM -0.4 °F -17.6 °F -7.6 °F 72% 29.82 in 10.0 mi SW 11.5 mph - N/A   Scattered Clouds
1:56 AM -0.0 °F -18.0 °F -7.1 °F 72% 29.87 in 10.0 mi SW 12.7 mph - N/A   Partly Cloudy
2:56 AM -0.9 °F -16.4 °F -8.0 °F 72% 29.90 in 10.0 mi SW 9.2 mph - N/A   Overcast
3:56 AM -0.9 °F -15.3 °F -8.0 °F 72% 29.92 in 10.0 mi WSW 8.1 mph - N/A   Overcast
4:03 AM -0.4 °F -15.7 °F -7.6 °F 72% 29.88 in 1.8 mi WSW 9.2 mph - 0.00 in Snow Light Snow
4:40 AM -0.4 °F -15.7 °F -7.6 °F 72% 29.89 in 2.5 mi SW 9.2 mph - 0.01 in Snow Light Snow
4:49 AM -0.4 °F -15.7 °F -7.6 °F 72% 29.89 in - WSW 9.2 mph - 0.01 in Snow Light Snow
4:56 AM -0.9 °F -17.4 °F -7.1 °F 75% 29.93 in 5.0 mi WSW 10.4 mph - 0.01 in Snow Light Snow
5:54 AM -2.2 °F -18.9 °F -9.4 °F 71% 29.91 in 10.0 mi WSW 10.4 mph - 0.00 in   Mostly Cloudy
5:56 AM -2.0 °F -18.7 °F -9.0 °F 72% 29.96 in 10.0 mi WSW 10.4 mph - 0.00 in   Mostly Cloudy
6:30 AM -2.2 °F -18.0 °F -11.2 °F 66% 29.94 in 7.0 mi SW 9.2 mph - N/A   Mostly Cloudy
6:55 AM -2.2 °F -18.0 °F -11.2 °F 66% 29.99 in 7.0 mi SW 9.2 mph - N/A   Mostly Cloudy
7:33 AM -4.0 °F -20.2 °F -11.2 °F 71% 29.96 in 4.0 mi SW 9.2 mph - N/A Snow Light Snow
7:55 AM -4.0 °F -22.1 °F -11.2 °F 71% 30.01 in 3.0 mi SW 11.5 mph - N/A Snow Light Snow
8:45 AM -5.8 °F -22.4 °F -11.2 °F 77% 29.98 in 13.0 mi SW 9.2 mph - N/A   Mostly Cloudy
8:55 AM -5.8 °F -23.4 °F -11.2 °F 77% 30.03 in 13.0 mi WSW 10.4 mph - N/A   Mostly Cloudy
9:55 AM -4.0 °F -21.2 °F -11.2 °F 71% 30.05 in 25.0 mi SW 10.4 mph - N/A   Scattered Clouds
10:55 AM -2.2 °F -19.9 °F -9.4 °F 71% 30.07 in 5.0 mi SW 11.5 mph - N/A Snow Light Snow
11:55 AM -0.4 °F -16.7 °F -9.4 °F 66% 30.09 in 4.0 mi WSW 10.4 mph - N/A Snow Light Snow
12:55 PM -0.4 °F -19.2 °F -9.4 °F 66% 30.11 in 7.0 mi SW 13.8 mph - N/A   Mostly Cloudy
1:55 PM -0.4 °F -17.6 °F -11.2 °F 60% 30.12 in 7.0 mi SW 11.5 mph - N/A   Mostly Cloudy
2:55 PM 1.4 °F -17.6 °F -11.2 °F 56% 30.14 in 7.0 mi WSW 15.0 mph - N/A   Mostly Cloudy
3:55 PM 1.4 °F -14.5 °F -11.2 °F 56% 30.15 in 7.0 mi WSW 10.4 mph - N/A   Mostly Cloudy
4:55 PM 1.4 °F -15.3 °F -11.2 °F 56% 30.16 in 7.0 mi SW 11.5 mph - N/A   Scattered Clouds
5:55 PM 1.4 °F -16.1 °F -11.2 °F 56% 30.16 in 7.0 mi WSW 12.7 mph - N/A   Scattered Clouds
10:56 PM -18.0 °F - -22.0 °F 82% 30.25 in 10.0 mi Calm Calm - N/A   Clear
11:23 PM -14.8 °F - -18.4 °F 84% 30.20 in - Calm Calm - N/A   Haze
11:39 PM -14.8 °F -24.8 °F -20.2 °F 77% 30.20 in 2.5 mi NNE 3.5 mph - 0.00 in Snow Light Snow
11:47 PM -11.2 °F - -18.4 °F 70% 30.20 in 4.0 mi Calm Calm - 0.00 in   Haze
11:56 PM -17.0 °F - -20.9 °F 82% 30.26 in 10.0 mi Calm Calm - 0.00 in   Partly Cloudy